Regional Weather Roundup
Issued by NWS

Home | Current Version | Previous Version | Text Only | Print | Product List | Glossary Off
Versions: 1 2 3 4 5 6 7 8 9 10 11 12 13 14 15 16 17 18 19 20 21 22 23 24 25 26 27 28 29 30 31 32 33 34 35 36 37 38 39 40 41 42 43 44 45 46 47 48 49 50

000
ASUS43 KMPX 272201
RWRMN
WEATHER ROUNDUP FOR MINNESOTA
NATIONAL WEATHER SERVICE TWIN CITIES/CHANHASSEN MN
400 PM CST SAT DEC 27 2014


NOTE: "FAIR" INDICATES FEW OR NO CLOUDS BELOW 12,000 FEET WITH NO
SIGNIFICANT WEATHER AND/OR OBSTRUCTIONS TO VISIBILITY. N/A MEANS
CURRENT SKY AND/OR WEATHER CONDITIONS ARE NOT AVAILABLE.

MNZ060>063-068>070-272300-
   Twin Cities Metro

CITY           SKY/WX    TMP DP  RH WIND       PRES   REMARKS
TWIN CITIES    CLEAR     23  11  60 W10       30.09R WCI  12
ST PAUL        CLEAR     23  14  68 SW9       30.10R WCI  13
CRYSTAL        CLEAR     23  10  57 W10       30.08R WCI  12
BLAINE         CLEAR     25  16  68 W6        30.07R WCI  18
LAKEVILLE      CLEAR     18  10  73 SW7       30.10R WCI   8
EDEN PRAIRIE   CLEAR     19  10  68 W8        30.10R WCI   9
SOUTH ST PAUL  CLEAR     25  15  67 SW7       30.09R WCI  17
LAKE ELMO      FAIR      23  14  68 W8        30.08R WCI  14
$$
MNZ001>005-007-008-013>017-022>024-027-028-272300-
   Northwest Minnesota

CITY           SKY/WX    TMP DP  RH WIND       PRES   REMARKS
BEMIDJI        FLURRIES  17  11  78 W8        30.00R WCI   6
HALLOCK        MOCLDY    18  12  79 CALM      30.02R FOG
ROSEAU         LGT SNOW  16  10  79 SW6       29.99R WCI   7
WARROAD        FLURRIES  14   9  79 W7        29.98R WCI   4
THIEF RVR FALL MOCLDY    14  10  85 SW5       30.01S WCI   6
CROOKSTON      MOCLDY    18  12  79 CALM      30.03F
FOSSTON        CLOUDY    14  10  85 SW8       30.02S WCI   3
DETROIT LAKES  MOCLDY    21  18  86 W8        30.02R WCI  12
MOORHEAD       CLOUDY    25  21  86 S5        30.04F WCI  19
PARK RAPIDS    CLOUDY    19  10  68 W9        29.99R WCI   8
MAHNOMEN       CLOUDY    17  13  84 SW8       30.02S WCI   7
$$
MNZ006-009>011-018-025>026-272300-
   North Central Minnesota

CITY           SKY/WX    TMP DP  RH WIND       PRES   REMARKS
BAUDETTE       PTCLDY    14   6  70 SW5       29.96R WCI   6
FLAG ISLAND    MOCLDY    12   7  79 W5        29.96R WCI   4
INTL FALLS     CLOUDY    15   6  67 W10       29.96R WCI   2
WASKISH        CLOUDY    14   9  79 SW6       29.99F WCI   5
BIG FORK       CLOUDY    18   7  62 SW8       29.97R WCI   7
LONGVILLE      MOCLDY    21   3  45 W6        29.98S WCI  14
GRAND RAPIDS   CLOUDY    19   0  42 NW6       29.97R WCI  11
CRANE LAKE     CLOUDY    16   7  67 SW3       29.97S
ORR            CLOUDY    18   3  53 MISG      29.93S
COOK           CLOUDY    19   7  58 SW5       29.95S WCI  13
WALKER         FLURRIES  19   6  56 W6        29.98S WCI  11
$$
MNZ012-019>021-037-272300-
   Northeast Minnesota

CITY           SKY/WX    TMP DP  RH WIND       PRES   REMARKS
DULUTH         PTCLDY    22   5  48 W7        29.94F WCI  13
ELY            MOCLDY    16   5  62 W5        29.94R WCI   9
HIBBING        CLOUDY    21   4  47 W6        29.96R WCI  13
EVELETH        MOCLDY    21   9  58 W8        29.97R WCI  12
DULUTH HARBOR  CLEAR     28  10  47 CALM      30.01S
TWO HARBORS    CLEAR     25  10  54 W7        29.94S WCI  17
SILVER BAY     CLEAR     21   9  58 CALM      29.94R
GRAND MARAIS     N/A     19   8  62 W6        29.97R WCI  11
G MARAIS ARPRT CLEAR      9   3  78 NW5       29.87S WCI   0
$$
MNZ029>031-032-039>041-046>048-054>057-064-272300-
   West Central Minnesota

CITY           SKY/WX    TMP DP  RH WIND       PRES   REMARKS
FERGUS FALLS   CLEAR     21  16  79 W10       30.08R WCI  10
WHEATON        CLEAR     23  16  74 W7        30.09R WCI  15
MORRIS         PTCLDY    21  16  79 SW8       30.06S WCI  12
ALEXANDRIA     CLOUDY    20  13  74 SW10      30.04R WCI   9
ELBOW LAKE     FAIR      23  18  81 W12       30.04S WCI  12
WADENA         CLOUDY    18  12  79 W13       30.01S WCI   4
GLENWOOD       MOCLDY    18  10  73 SW10      30.06R WCI   6
APPLETON       MOCLDY    21  16  79 SW10      30.09S WCI  10
BENSON         MOCLDY    18  10  73 W7        30.09S WCI   8
ORTONVILLE     CLOUDY    23  16  74 SW10      30.07S WCI  12
MADISON        MOCLDY    23  16  74 W7        30.11S WCI  15
WILLMAR        FAIR      18   9  68 W6        30.10S WCI   9
$$
MNZ033>034-036-042>043-049>051-058-059-272300-
   Central Minnesota

CITY           SKY/WX    TMP DP  RH WIND       PRES   REMARKS
ST CLOUD       CLEAR     23   6  48 SW9       30.06S WCI  13
SAUK CENTRE    FAIR      17  10  74 SW9       30.06R WCI   5
PAYNESVILLE    CLEAR     16   9  74 S10       30.07F WCI   3
AITKIN         MOCLDY    25   7  46 SW5       29.98S WCI  19
PINE RIVER     CLOUDY    21   9  58 W5        30.03S WCI  15
BRAINERD       PTCLDY    22   1  40 W9        30.01S WCI  12
STAPLES        CLOUDY    21  10  63 W13       30.01S WCI   9
LONG PRAIRIE   MOCLDY    19  12  73 S9        30.04R WCI   9
LITTLE FALLS   PTCLDY    23   5  46 SW7       30.04S WCI  15
LITCHFIELD     CLEAR     18  10  73 SW6       30.09S WCI   9
BUFFALO        CLEAR     20   8  59 SW3       30.10R
MAPLE LAKE     CLEAR     20  11  67 SW7       30.09R WCI  11
$$
MNZ037-044-045-052-053-272300-
   East Central Minnesota

CITY           SKY/WX    TMP DP  RH WIND       PRES   REMARKS
PRINCETON      CLEAR     25   9  50 CALM      30.05S
MORA           CLEAR     27  10  50 SW6       30.05R WCI  20
CAMBRIDGE      CLEAR     25  10  54 W5        30.04S WCI  19
RUSH CITY      CLEAR     24  13  62 W6        30.04S WCI  17
MOOSE LAKE     PTCLDY    25  10  54 SW7       29.98S WCI  17
HINCKLEY       FAIR      27  14  59 CALM      30.02S
CLOQUET        CLEAR     23   3  42 W10       29.97S WCI  12
MCGREGOR       MOCLDY    25   9  50 SW5       29.99S WCI  19
$$
MNZ071>073-080-081-089-090-097-098-272300-
   Southwest Minnesota

CITY           SKY/WX    TMP DP  RH WIND       PRES   REMARKS
MONTEVIDEO     CLEAR     21  18  86 W8        30.11S WCI  12
GRANITE FALLS  CLEAR     20  13  74 SW7       30.12F WCI  11
CANBY          CLEAR     20  14  76 SW13      30.11S WCI   7
MARSHALL       CLEAR     19  12  73 SW5       30.10S WCI  13
REDWOOD FALLS  CLEAR     17  10  74 SW8       30.12S WCI   7
OLIVIA         CLEAR     19  12  73 SW6       30.11R WCI  11
PIPESTONE      CLEAR     10   9  92 W7        30.10S WCI   0
WINDOM         CLEAR     16  10  79 W8        30.11F WCI   5
WORTHINGTON    CLEAR     16 -27  13 W12       30.12S WCI   3
JACKSON        CLEAR     19  10  68 W9        30.12S WCI   9
TRACY          CLEAR     18  11  76 SW10      30.11S WCI   6
SLAYTON        CLEAR     13   8  80 W13       30.11S WCI  -2
$$
MNZ065>067-074>077-082>085-091>093-272300-
   South Central Minnesota

CITY           SKY/WX    TMP DP  RH WIND       PRES   REMARKS
MANKATO        CLEAR     16   5  62 W8        30.13R WCI   5
NEW ULM        CLEAR     12   7  79 W8        30.13S WCI   1
ST JAMES       CLEAR     19  10  68 W9        30.14F WCI   9
FAIRMONT       CLEAR     19   9  63 W8        30.13S WCI   9
GLENCOE        CLEAR     15  10  79 SW6       30.11R WCI   6
FARIBAULT      CLEAR     18  10  73 W7        30.11S WCI   8
OWATONNA       CLEAR     16   9  73 W7        30.10R WCI   6
ALBERT LEA     CLEAR     16  10  79 W7        30.12R WCI   6
$$
MNZ078>079-086>088-094>096-272300-
   Southeast Minnesota

CITY           SKY/WX    TMP DP  RH WIND       PRES   REMARKS
ROCHESTER      MOCLDY    18  13  80 W12       30.09R WCI   5
RED WING       CLEAR     25  16  68 W12       30.09R WCI  14
STANTON        CLEAR     20  13  73 W7        30.10R WCI  11
DODGE CENTER   CLEAR     18  14  86 W13       30.09R WCI   4
WINONA         CLOUDY    28  21  74 W9        30.10R WCI  20
AUSTIN         PTCLDY    18  12  79 W9        30.11R WCI   6
PRESTON        CLOUDY    19  16  86 NW10      30.09R WCI   8
$$
ABBREVIATIONS USED IN REMARKS
   TC - TEMPERATURES IN CELSIUS
  WCI - WIND CHILL INDEX
   HX - HEAT INDEX
  VSB - VISIBILITY
$$


USA.gov is the U.S. government's official web portal to all federal, state and local government web resources and services.